Volver al catálogo

COSMOS 209

ActivoMilitarLEO
NORAD 3158·PAYLOAD·🇷🇺 Russia

Lanzado Mar 22, 1968 desde Baikonur Cosmodrome

Loading…

Próximos Pases (próximas 24 horas)

TLE

ActualizadoSource: Space-Track

Época: Sep 14, 2026, 04:35 UTC

1 03158U 68023A   26257.19120407 -.00000052  00000-0  26554-4 0  9996
2 03158  65.3330 321.7193 0044880 221.6030 138.1623 13.97938858983457

Sigue COSMOS 209 en tiempo real con AllMySat

Download on the App Store